Regional Weather Roundup
Issued by NWS Little Rock, AR

Home | Current Version | Previous Version | Graphics & Text | Print | Product List | Glossary On
Versions: 1 2 3 4 5 6 7 8 9 10 11 12 13 14 15 16 17 18 19 20 21 22 23 24 25 26 27
000
ASUS44 KLZK 291305
RWRLZK

WEATHER ROUNDUP FOR ARKANSAS
NATIONAL WEATHER SERVICE LITTLE ROCK AR
800 AM CDT FRI JUL 29 2016

NOTE: "FAIR" INDICATES FEW OR NO CLOUDS BELOW 12,000 FEET WITH NO
SIGNIFICANT WEATHER AND/OR OBSTRUCTIONS TO VISIBILITY.

ARZ001-003-010-029-291400-
NORTHWEST ARKANSAS

CITY           SKY/WX    TMP DP  RH WIND       PRES   REMARKS
FAYETTEVILLE   CLOUDY    75  74  96 S5        30.01R
FORT SMITH     CLOUDY    80  72  76 W7        29.97S
HARRISON       MOSUNNY   75  73  93 CALM      30.01R
BENTONVILLE    CLOUDY    75  72  88 CALM      30.02R
ROGERS         CLOUDY    75  74  96 NW3       30.02R FOG
SILOAM SPGS    PTSUNNY   75  66  73 NW3       30.02R
HIGHFILL       MOSUNNY   77  75  93 W3        30.01R
SPRINGDALE     PTSUNNY   77  73  88 SW5       30.03R
$$

ARZ004-005-016-291400-
NORTH CENTRAL ARKANSAS

CITY           SKY/WX    TMP DP  RH WIND       PRES   REMARKS
BATESVILLE     CLOUDY    77  73  88 W8        29.98R
FLIPPIN        CLOUDY    73  70  88 NE3       29.96R
MTN HOME       CLOUDY    73  71  93 CALM      29.98R
$$

ARZ040-041-291400-
WEST CENTRAL ARKANSAS

CITY           SKY/WX    TMP DP  RH WIND       PRES   REMARKS
MENA             N/A    N/A N/A N/A MISG        N/A
MOUNT IDA      PTSUNNY   76  74  93 CALM      30.00R
$$

ARZ009-017-025-026-028-291400-
NORTHEAST ARKANSAS

CITY           SKY/WX    TMP DP  RH WIND       PRES   REMARKS
CORNING          N/A     75  75 100 SW6       29.97R
JONESBORO      CLOUDY    76  74  93 SW8       29.96R FOG
NEWPORT        CLOUDY    76  76 100 SW12      29.98R
WALNUT RIDGE   CLOUDY    75  72  88 W5        29.96R
BLYTHEVILLE    CLOUDY    76  74  93 SW8       29.97R
$$

ARZ022-023-033-042-044-291400-
CENTRAL ARKANSAS

CITY           SKY/WX    TMP DP  RH WIND       PRES   REMARKS
LITTLE ROCK    CLOUDY    77  72  84 SW12      30.00R
N LITTLE ROCK    N/A     74  72  94 W7        29.97R
JACKSONVILLE   CLOUDY    76  75  96 SW9       29.98R
SEARCY         CLOUDY    75  74  96 SW7       29.98R FOG
HOT SPRINGS    CLOUDY    74  72  93 W5        30.02R
RUSSELLVILLE   SUNNY     79  75  87 CALM      29.97R
$$

ARZ036-291400-
EAST ARKANSAS

CITY           SKY/WX    TMP DP  RH WIND       PRES   REMARKS
WEST MEMPHIS   CLOUDY    75  72  90 SW8       29.97R
$$

ARZ050-053-066-070-073-291400-
SOUTHWEST ARKANSAS

CITY           SKY/WX    TMP DP  RH WIND       PRES   REMARKS
ARKADELPHIA    CLOUDY    75  73  93 W8        30.02R
CAMDEN         CLOUDY    73  70  88 CALM      30.02R
TEXARKANA      CLOUDY    73  72  96 SW7       30.02R
EL DORADO      PTSUNNY   74  73  97 SW7       30.03R
DE QUEEN       PTSUNNY   75  74  96 CALM      30.01R FOG
$$

ARZ056-057-069-291400-
SOUTHEAST ARKANSAS

CITY           SKY/WX    TMP DP  RH WIND       PRES   REMARKS
PINE BLUFF     CLOUDY    74  71  91 W8        30.00R
STUTTGART      CLOUDY    73  70  88 SW12      29.99R
MONTICELLO     SUNNY     76  72  87 W6        30.00R

$$






USA.gov is the U.S. government's official web portal to all federal, state and local government web resources and services.